West Memphis, AR

1:22 AM CDT on April 27, 2017 (GMT -0500)
West Memphis Municipal

Weather History for KAWM - September, 2012

Change the Weather History Date:

Wednesday, September 12, 2012

  Actual Average Record
Temperature  
Mean Temperature 74 °F -  
Max Temperature 84 °F 85 °F 95 °F (1980)
Min Temperature 64 °F 64 °F 50 °F (1976)
Cooling Degree Days 9    
Growing Degree Days 24 (Base 50)    
Moisture  
Dew Point 60 °F    
Average Humidity 64    
Maximum Humidity 84    
Minimum Humidity 37    
Precipitation  
Precipitation 0.00 in - - ()
Sea Level Pressure  
Sea Level Pressure 30.14 in    
Wind  
Wind Speed 6 mph (SSE)    
Max Wind Speed 12 mph    
Max Gust Speed -    
Visibility 10 miles    
Events      
Averages and records for this station are not official NWS values.
T = Trace of Precipitation, MM = Missing Value Source: NWS Daily Summary

Daily Weather History Graph

Daily Weather History Graph

Search for Another Location

Airport or City:

Trip Planner

Search our weather history database for the weather conditions in past years. The results will help you decide how hot, cold, wet, or windy it might be!

Date:

Astronomy

Sep. 12, 2012 Rise Set
Actual Time 6:41 AM CDT 7:11 PM CDT
Civil Twilight 6:16 AM CDT 7:36 PM CDT
Nautical Twilight 5:46 AM CDT 8:06 PM CDT
Astronomical Twilight 5:15 AM CDT 8:37 PM CDT
Moon 3:05 AM CDT (9/12) 4:53 PM CDT (9/12)
Length of Visible Light 13h 20m
Length of Day
12h 29m
Waning Crescent, 13% of the Moon is Illuminated
Sep 12
Waning Crescent
Sep 15
New
Sep 22
First Quarter
Sep 29
Full
Oct 8
Last Quarter

Hourly Weather History & Observations

Time (CDT) Temp. Heat Index Dew Point Humidity Pressure Visibility Wind Dir Wind Speed Gust Speed Precip Events Conditions
12:53 AM 68.0 °F - 60.1 °F 76% 30.12 in 10.0 mi South 6.9 mph - N/A   Clear
1:53 AM 66.0 °F - 60.1 °F 81% 30.12 in 10.0 mi South 3.5 mph - N/A   Clear
2:53 AM 64.9 °F - 60.1 °F 84% 30.12 in 10.0 mi South 4.6 mph - N/A   Scattered Clouds
3:53 AM 66.0 °F - 61.0 °F 84% 30.12 in 10.0 mi SSE 4.6 mph - N/A   Mostly Cloudy
4:53 AM 64.9 °F - 60.1 °F 84% 30.13 in 10.0 mi SSE 3.5 mph - N/A   Mostly Cloudy
5:53 AM 66.9 °F - 62.1 °F 84% 30.14 in 10.0 mi South 3.5 mph - N/A   Overcast
6:53 AM 68.0 °F - 63.0 °F 84% 30.16 in 10.0 mi Calm Calm - N/A   Overcast
7:53 AM 69.1 °F - 64.0 °F 84% 30.18 in 10.0 mi SSE 4.6 mph - N/A   Overcast
8:53 AM 73.0 °F - 63.0 °F 71% 30.19 in 10.0 mi SSE 5.8 mph - N/A   Overcast
9:53 AM 75.0 °F - 63.0 °F 66% 30.20 in 10.0 mi SSE 8.1 mph - N/A   Overcast
10:53 AM 78.1 °F - 62.1 °F 58% 30.21 in 10.0 mi SSE 6.9 mph - N/A   Overcast
11:53 AM 82.0 °F 82.1 °F 59.0 °F 45% 30.19 in 10.0 mi SE 6.9 mph - N/A   Overcast
12:53 PM 84.0 °F 82.9 °F 55.0 °F 37% 30.17 in 10.0 mi SSE 8.1 mph - N/A   Mostly Cloudy
1:53 PM 82.0 °F 81.4 °F 55.0 °F 39% 30.14 in 10.0 mi SSE 3.5 mph - N/A   Scattered Clouds
2:53 PM 84.9 °F 83.7 °F 55.9 °F 37% 30.12 in 10.0 mi SSE 9.2 mph - N/A   Mostly Cloudy
3:53 PM 82.9 °F 82.4 °F 57.0 °F 41% 30.11 in 10.0 mi SSE 9.2 mph - N/A   Clear
4:53 PM 82.9 °F 82.4 °F 57.0 °F 41% 30.10 in 10.0 mi SSE 6.9 mph - N/A   Clear
5:53 PM 82.0 °F 82.0 °F 57.9 °F 44% 30.09 in 10.0 mi SE 5.8 mph - N/A   Clear
6:53 PM 78.1 °F - 57.9 °F 50% 30.09 in 10.0 mi SE 3.5 mph - N/A   Clear
7:53 PM 73.0 °F - 61.0 °F 66% 30.10 in 10.0 mi SE 4.6 mph - N/A   Clear
8:53 PM 70.0 °F - 60.1 °F 71% 30.12 in 10.0 mi SE 4.6 mph - N/A   Clear
9:53 PM 73.0 °F - 61.0 °F 66% 30.12 in 10.0 mi ESE 5.8 mph - N/A   Clear
10:53 PM 72.0 °F - 64.9 °F 78% 30.13 in 10.0 mi SE 6.9 mph - N/A   Clear
11:53 PM 73.0 °F - 64.9 °F 76% 30.14 in 10.0 mi SSE 11.5 mph - N/A   Clear